Weather History for Nebraska City, NE

Change the Weather History Date:

Sunday, March 3, 2013

  Actual Average (KSDA) Record (KSDA)
Temperature  
Mean Temperature 34 °F -  
Max Temperature 42 °F 45 °F 80 °F (1983)
Min Temperature 26 °F 26 °F -7 °F (2014)
Degree Days  
Heating Degree Days 31    
Moisture  
Dew Point 25 °F    
Average Humidity 71    
Maximum Humidity 85    
Minimum Humidity 58    
Precipitation  
Precipitation 0.00 in - - ()
Sea Level Pressure  
Sea Level Pressure 29.89 in    
Wind  
Wind Speed 7 mph (SSE)    
Max Wind Speed 17 mph    
Max Gust Speed 23 mph    
Visibility 9 miles    
Events      
Averages and records for this station are not official NWS values.
T = Trace of Precipitation, MM = Missing Value Source: NWS Daily Summary

Daily Weather History Graph

Daily Weather History Graph

Search for Another Location

Airport:

Trip Planner

Search our weather history database for the weather conditions in past years. The results will help you decide how hot, cold, wet, or windy it might be!

Date:

Astronomy

Mar. 03, 2013 Rise Set
Actual Time 6:53 AM CST 6:17 PM CST
Civil Twilight 6:26 AM CST 6:44 PM CST
Nautical Twilight 5:54 AM CST 7:16 PM CST
Astronomical Twilight 5:23 AM CST 7:48 PM CST
Moon No Moon Rise 10:07 AM CST (3/3)
Length of Visible Light 12h 18m
Length of Day
11h 23m
Waning Gibbous, 63% of the Moon is Illuminated
Mar 3
Waning Gibbous
Mar 4
Last Quarter
Mar 11
New
Mar 19
First Quarter
Mar 27
Full

Hourly Weather History & Observations

Time (CST) Temp. Windchill Dew Point Humidity Pressure Visibility Wind Dir Wind Speed Gust Speed Precip Events Conditions
12:15 AM 27.5 °F 22.2 °F 23.0 °F 83% 30.10 in 7.0 mi South 4.6 mph - N/A   Clear
12:35 AM 27.5 °F - 23.2 °F 84% 30.10 in 7.0 mi Calm Calm - N/A   Clear
12:55 AM 27.1 °F - 23.0 °F 84% 30.09 in 7.0 mi Calm Calm - N/A   Clear
1:15 AM 27.1 °F - 23.0 °F 84% 30.08 in 7.0 mi Calm Calm - N/A   Clear
1:55 AM 27.1 °F - 23.0 °F 84% 30.07 in 7.0 mi Calm Calm - N/A   Clear
2:15 AM 27.1 °F - 23.0 °F 84% 30.06 in 7.0 mi Calm Calm - N/A   Clear
2:35 AM 27.0 °F - 22.8 °F 84% 30.05 in 7.0 mi Calm Calm - N/A   Clear
2:55 AM 26.8 °F - 22.8 °F 85% 30.04 in 7.0 mi Calm Calm - N/A   Clear
3:15 AM 26.6 °F - 22.6 °F 85% 30.03 in 7.0 mi Calm Calm - N/A   Clear
3:35 AM 27.1 °F 18.2 °F 22.5 °F 83% 30.02 in 7.0 mi South 9.2 mph - N/A   Clear
3:55 AM 27.5 °F 17.4 °F 22.6 °F 82% 30.01 in 7.0 mi South 11.5 mph - N/A   Clear
4:15 AM 27.3 °F 17.1 °F 22.5 °F 82% 30.00 in 7.0 mi South 11.5 mph - N/A   Clear
4:35 AM 27.1 °F 16.9 °F 22.3 °F 82% 29.99 in 7.0 mi South 11.5 mph - N/A   Clear
4:55 AM 27.1 °F 17.5 °F 22.1 °F 81% 29.99 in 7.0 mi SSE 10.4 mph - N/A   Clear
5:15 AM 27.1 °F 18.2 °F 22.1 °F 81% 29.99 in 7.0 mi SSE 9.2 mph - N/A   Clear
5:35 AM 27.1 °F 17.5 °F 22.1 °F 81% 29.98 in 7.0 mi SSE 10.4 mph - N/A   Clear
5:55 AM 27.1 °F 16.9 °F 22.1 °F 81% 29.97 in 7.0 mi South 11.5 mph - N/A   Clear
6:15 AM 27.1 °F 18.9 °F 22.1 °F 81% 29.98 in 7.0 mi SSE 8.1 mph - N/A   Clear
6:35 AM 27.1 °F 17.5 °F 21.9 °F 81% 29.96 in 7.0 mi SSE 10.4 mph - N/A   Clear
6:55 AM 27.0 °F - 21.9 °F 81% 29.97 in 7.0 mi Calm Calm - N/A   Clear
7:15 AM 27.3 °F 19.9 °F 22.1 °F 81% 29.97 in 5.0 mi SSE 6.9 mph - N/A   Haze
7:35 AM 28.0 °F 19.3 °F 22.5 °F 80% 29.97 in 5.0 mi SSE 9.2 mph - N/A   Haze
7:55 AM 29.1 °F 22.1 °F 22.8 °F 77% 29.97 in 7.0 mi SSE 6.9 mph 10.4 mph N/A   Clear
8:15 AM 29.3 °F 21.5 °F 22.6 °F 76% 29.96 in 7.0 mi SSE 8.1 mph - N/A   Clear
8:35 AM 30.4 °F 21.5 °F 22.8 °F 73% 29.96 in 7.0 mi SSE 10.4 mph - N/A   Clear
8:55 AM 31.8 °F 23.3 °F 23.4 °F 71% 29.95 in 7.0 mi SSE 10.4 mph - N/A   Clear
9:15 AM 32.5 °F 23.2 °F 23.5 °F 69% 29.95 in 7.0 mi SSE 12.7 mph 17.3 mph N/A   Clear
9:35 AM 32.9 °F 23.7 °F 23.5 °F 68% 29.94 in 10.0 mi SSE 12.7 mph - N/A   Clear
9:55 AM 33.4 °F 24.3 °F 23.7 °F 68% 29.94 in 10.0 mi SSE 12.7 mph - N/A   Clear
10:15 AM 35.2 °F 26.6 °F 24.4 °F 65% 29.93 in 10.0 mi South 12.7 mph - N/A   Clear
10:35 AM 36.1 °F 27.7 °F 24.8 °F 63% 29.93 in 10.0 mi South 12.7 mph - N/A   Clear
10:55 AM 35.8 °F 27.3 °F 24.8 °F 64% 29.92 in 10.0 mi SSE 12.7 mph 16.1 mph N/A   Clear
11:15 AM 36.5 °F 28.2 °F 25.5 °F 64% 29.92 in 10.0 mi South 12.7 mph - N/A   Clear
11:35 AM 36.7 °F 28.9 °F 25.3 °F 64% 29.91 in 10.0 mi SSE 11.5 mph - N/A   Clear
11:55 AM 37.6 °F 29.1 °F 25.9 °F 63% 29.89 in 10.0 mi SSE 13.8 mph - N/A   Scattered Clouds
12:15 PM 38.7 °F 33.6 °F 26.4 °F 61% 29.89 in 10.0 mi SSE 6.9 mph - N/A   Mostly Cloudy
12:35 PM 39.2 °F 33.0 °F 26.4 °F 60% 29.87 in 10.0 mi SE 9.2 mph - N/A   Scattered Clouds
12:55 PM 40.6 °F 36.0 °F 27.1 °F 59% 29.87 in 10.0 mi SSE 6.9 mph - N/A   Mostly Cloudy
1:15 PM 41.4 °F 35.2 °F 27.7 °F 58% 29.85 in 10.0 mi SSE 10.4 mph 16.1 mph N/A   Scattered Clouds
1:35 PM 41.2 °F 36.6 °F 27.5 °F 58% 29.84 in 10.0 mi SE 6.9 mph - N/A   Scattered Clouds
1:55 PM 41.5 °F 35.0 °F 28.4 °F 60% 29.83 in 10.0 mi SE 11.5 mph - N/A   Mostly Cloudy
2:15 PM 41.9 °F 35.9 °F 28.0 °F 58% 29.82 in 10.0 mi SE 10.4 mph 16.1 mph N/A   Mostly Cloudy
2:35 PM 42.3 °F 37.3 °F 28.9 °F 59% 29.81 in 10.0 mi SE 8.1 mph - N/A   Scattered Clouds
2:55 PM 42.1 °F 37.1 °F 28.9 °F 60% 29.81 in 10.0 mi SE 8.1 mph 16.1 mph N/A   Clear
3:15 PM 42.1 °F 34.9 °F 29.1 °F 60% 29.80 in 10.0 mi SE 13.8 mph - N/A   Clear
3:35 PM 42.8 °F 36.2 °F 29.7 °F 60% 29.81 in 10.0 mi SSE 12.7 mph - N/A   Clear
3:55 PM 42.3 °F 35.1 °F 29.3 °F 60% 29.80 in 10.0 mi SE 13.8 mph 19.6 mph N/A   Scattered Clouds
4:15 PM 41.0 °F 35.8 °F 29.7 °F 64% 29.80 in 10.0 mi ESE 8.1 mph - N/A   Scattered Clouds
4:35 PM 40.1 °F 36.9 °F 29.1 °F 65% 29.80 in 10.0 mi SE 4.6 mph - N/A   Mostly Cloudy
4:55 PM 39.2 °F 32.0 °F 28.4 °F 65% 29.80 in 10.0 mi SE 11.5 mph 19.6 mph N/A   Overcast
5:15 PM 38.5 °F 30.3 °F 28.4 °F 67% 29.78 in 10.0 mi SE 13.8 mph - N/A   Overcast
5:35 PM 38.3 °F 29.3 °F 27.9 °F 66% 29.77 in 10.0 mi SE 16.1 mph 19.6 mph N/A   Mostly Cloudy
5:55 PM 37.8 °F - 28.0 °F 68% 29.77 in 10.0 mi Calm Calm - N/A   Scattered Clouds
6:35 PM 36.3 °F 28.9 °F 27.9 °F 71% 29.77 in 10.0 mi ESE 10.4 mph - N/A   Overcast
6:55 PM 35.2 °F 27.6 °F 27.3 °F 73% 29.78 in 10.0 mi SE 10.4 mph 16.1 mph N/A   Mostly Cloudy
7:15 PM 34.9 °F 26.6 °F 27.3 °F 74% 29.79 in 10.0 mi SE 11.5 mph 17.3 mph N/A   Overcast
7:35 PM 34.9 °F 27.1 °F 27.0 °F 73% 29.80 in 10.0 mi ESE 10.4 mph 16.1 mph N/A   Overcast
7:55 PM 34.7 °F 26.4 °F 26.6 °F 72% 29.81 in 10.0 mi SE 11.5 mph 18.4 mph N/A   Overcast
8:15 PM 34.3 °F 25.5 °F 26.6 °F 73% 29.80 in 10.0 mi SE 12.7 mph - N/A   Overcast
8:35 PM 34.2 °F 25.2 °F 26.4 °F 73% 29.79 in 10.0 mi SE 12.7 mph 18.4 mph N/A   Overcast
8:55 PM 34.2 °F 24.4 °F 25.7 °F 71% 29.79 in 10.0 mi SE 15.0 mph 21.9 mph N/A   Overcast
9:15 PM 34.7 °F 24.3 °F 25.3 °F 69% 29.78 in 10.0 mi SE 17.3 mph 23.0 mph N/A   Overcast
9:35 PM 34.7 °F 25.5 °F 24.6 °F 67% 29.77 in 10.0 mi SE 13.8 mph - N/A   Mostly Cloudy
9:55 PM 34.5 °F 24.5 °F 24.8 °F 68% 29.76 in 10.0 mi SE 16.1 mph 21.9 mph N/A   Scattered Clouds
10:15 PM 34.3 °F 25.0 °F 24.4 °F 67% 29.75 in 10.0 mi SE 13.8 mph 19.6 mph N/A   Clear
10:35 PM 34.3 °F 25.5 °F 24.4 °F 67% 29.75 in 10.0 mi SE 12.7 mph 18.4 mph N/A   Clear
10:55 PM 34.3 °F 28.4 °F 23.9 °F 66% 29.76 in 10.0 mi SE 6.9 mph 17.3 mph N/A   Scattered Clouds
11:15 PM 34.2 °F 24.4 °F 23.9 °F 66% 29.74 in 10.0 mi SE 15.0 mph 21.9 mph N/A   Scattered Clouds
11:35 PM 34.0 °F 25.5 °F 23.9 °F 67% 29.74 in 10.0 mi SE 11.5 mph - N/A   Clear
11:55 PM 34.0 °F 25.0 °F 24.4 °F 68% 29.72 in 10.0 mi SE 12.7 mph 18.4 mph N/A   Clear